Wind_Speed
14 14 13 14 14 14 14 13 12 11 10 10 9 9 8 7 7 7 6 6 7 7 7 6 6 6 6 6 6 5 4 3 3 4 4 4 4 3 3 2 1 1 2 2 2 2 1 1 1
15 15 14 14 15 14 15 14 13 11 11 10 9 9 9 8 7 7 7 7 7 8 7 6 6 6 6 6 6 5 4 4 4 4 3 4 3 3 3 2 2 3 2 2 2 2 2 1 1
15 15 15 16 16 15 16 15 14 13 12 11 10 10 9 8 7 6 7 7 7 8 7 6 6 7 6 5 6 5 5 4 4 4 4 4 3 3 3 2 2 1 2 2 2 2 2 2 1
15 16 16 17 18 17 16 15 14 13 11 10 10 10 8 8 7 7 7 6 7 7 6 6 6 6 6 7 6 6 5 4 4 4 4 4 3 3 2 1 1 1 1 2 2 2 3 3 2
15 15 17 18 18 17 16 14 14 13 12 11 10 10 9 8 7 7 6 6 6 7 7 7 6 6 6 6 6 6 5 5 4 3 3 3 3 2 2 2 1 1 1 1 2 3 3 2 2
16 16 17 18 17 16 16 15 13 12 12 12 11 10 9 9 8 8 7 6 6 7 7 7 7 7 6 6 5 5 5 5 4 4 3 3 3 2 2 2 2 2 2 1 2 2 2 2 2
14 15 16 18 17 15 15 15 13 12 12 11 11 10 9 9 8 8 7 6 6 6 7 7 7 7 6 5 5 5 6 5 5 5 4 3 2 2 2 2 2 2 2 2 2 2 3 3 2
13 14 15 16 17 15 15 14 13 13 13 13 12 11 10 9 9 8 7 6 6 7 6 6 6 6 6 6 6 5 5 5 5 5 4 4 2 2 2 2 2 1 2 2 2 3 3 3 2
12 14 14 15 16 15 14 13 13 13 14 14 14 12 11 10 9 8 7 6 6 6 6 6 6 6 6 6 5 5 5 5 4 4 4 3 3 3 3 3 2 2 2 2 3 3 4 3 3
12 13 14 14 14 14 14 14 13 13 13 13 13 12 11 10 9 8 7 7 7 6 6 6 6 6 6 6 5 5 5 4 4 4 3 4 3 3 4 4 3 3 3 3 3 4 4 4 4
10 11 13 13 12 13 13 14 13 13 13 12 12 12 12 10 8 8 7 7 7 6 6 6 5 6 6 6 6 5 5 4 4 4 3 3 3 3 4 5 4 4 3 4 4 4 4 4 4
8 9 9 11 11 11 12 13 14 13 13 12 12 12 12 11 9 8 8 7 6 6 5 5 5 6 6 6 5 5 5 5 5 4 4 3 3 3 4 5 5 5 5 4 4 5 5 5 5
6 6 7 8 9 10 11 12 13 13 12 11 11 12 12 11 11 10 9 8 7 6 5 5 5 6 6 6 6 5 5 5 4 4 3 3 4 4 4 5 5 6 6 6 5 6 6 7 7
4 5 5 6 6 8 10 11 12 14 13 12 12 12 12 12 11 11 10 9 8 7 6 5 5 6 6 6 6 5 5 5 4 4 4 4 4 4 4 5 6 7 7 7 6 6 7 7 8
4 4 5 5 5 7 8 9 11 14 14 13 13 13 13 13 11 11 11 10 9 7 6 6 5 5 5 5 5 5 4 4 4 4 5 5 4 4 4 5 6 7 8 8 7 7 8 8 8
4 4 5 5 5 6 6 7 10 12 13 13 13 12 13 13 12 11 11 10 10 8 7 7 6 6 5 5 5 5 5 5 5 5 5 4 5 5 5 6 6 7 8 9 9 8 8 8 9
3 3 4 5 3 4 5 7 8 10 12 12 12 12 12 12 12 12 11 11 10 9 8 8 8 6 6 6 5 5 6 5 5 5 4 5 5 5 6 6 7 8 9 10 9 9 9 9 10
2 1 1 4 5 6 6 6 7 8 9 10 11 11 12 11 11 11 11 11 10 9 8 8 8 7 6 7 7 6 6 6 5 5 5 6 6 7 8 8 9 9 10 10 10 10 11 11 11
4 3 2 3 5 7 7 7 7 6 7 9 9 9 10 10 11 10 10 10 9 9 8 8 7 7 7 7 7 7 7 6 6 6 7 7 8 9 9 10 10 10 11 11 12 12 12 12 12
6 5 4 3 5 7 8 8 10 7 7 8 8 9 9 9 10 10 10 9 9 8 8 8 7 6 7 7 7 8 8 8 8 8 8 8 9 10 11 11 11 12 12 12 13 13 13 13 13
8 7 6 5 7 8 9 9 11 10 9 9 8 7 7 8 9 10 10 9 9 9 8 8 7 7 7 8 8 9 9 9 9 9 9 10 10 11 11 12 12 13 13 14 14 14 14 15 15
9 9 8 7 8 9 10 11 11 10 10 10 8 6 6 7 8 9 10 10 10 9 8 8 8 8 8 9 9 9 9 9 9 9 10 11 11 11 12 12 12 13 14 15 15 15 15 15 16
10 9 9 9 10 11 11 12 11 11 10 10 10 8 7 7 8 9 9 11 11 10 9 9 9 10 9 10 10 10 10 10 10 11 11 12 13 12 12 12 13 13 14 15 15 16 16 16 17
12 11 11 12 13 13 12 13 12 12 12 11 11 9 8 8 8 9 8 9 11 10 10 9 10 11 11 10 11 10 10 11 11 12 12 12 12 12 13 14 14 15 15 16 16 17 17 18 18
15 14 13 14 15 15 13 14 14 13 13 12 12 10 10 9 9 11 10 10 11 11 12 11 10 10 11 11 11 10 11 11 12 13 13 13 14 15 15 15 16 16 16 17 18 19 18 19 19
17 17 16 16 16 16 16 16 14 14 15 14 13 11 10 11 10 12 12 12 11 11 12 11 12 12 13 13 12 12 12 13 12 13 14 14 15 16 17 17 18 18 18 19 19 20 20 21 21
17 19 18 18 18 19 17 16 15 15 15 14 13 11 11 12 12 13 13 13 12 13 12 11 12 12 13 14 14 14 14 14 14 15 15 16 16 17 18 18 19 19 20 20 20 20 21 21 22
19 20 20 21 20 20 19 18 17 15 15 15 15 15 13 13 14 14 14 13 13 14 14 13 13 13 14 14 15 16 16 16 16 16 16 17 18 18 19 19 20 21 21 21 21 22 22 22 23
21 21 22 22 22 23 22 19 18 19 17 16 16 17 17 16 17 16 16 15 15 15 16 16 16 15 15 16 16 16 17 17 17 18 18 19 20 20 21 21 21 22 22 22 23 23 23 24 24
23 23 23 24 24 25 24 23 21 19 20 19 18 19 18 17 18 18 17 17 16 17 17 17 17 18 18 18 18 18 19 19 19 19 20 20 21 21 22 22 22 23 24 24 25 24 25 24 24
Wind_Direction
87 82 76 73 68 62 57 58 55 52 46 47 48 44 40 49 51 51 48 41 39 46 51 59 64 71 80 95 114 126 128 142 153 162 155 149 141 133 130 127 80 73 78 68 41 16 5 313 285
84 78 75 70 63 57 53 52 51 52 50 48 43 43 40 47 47 44 45 42 45 53 56 63 68 75 88 100 105 104 104 117 126 139 142 142 131 126 122 118 103 75 58 54 29 5 358 356 318
81 76 68 64 61 56 51 51 54 52 50 46 42 42 42 43 42 42 39 43 50 55 57 66 75 77 81 93 100 95 89 99 106 110 121 127 122 118 125 119 104 72 53 43 20 13 18 37 22
79 74 66 62 59 55 51 51 49 46 45 42 41 40 39 38 39 43 38 41 49 55 58 66 75 79 79 86 97 90 90 93 96 106 120 120 120 114 110 98 96 66 42 35 18 21 31 47 44
73 69 64 62 58 54 51 49 46 44 41 39 38 36 36 39 36 36 41 47 53 54 58 63 73 79 79 85 86 82 83 83 88 103 114 121 116 102 94 82 85 62 25 19 14 4 16 15 21
72 66 63 59 57 54 50 46 42 42 38 36 36 34 34 39 40 38 44 52 57 56 58 62 68 77 81 80 75 68 72 75 84 87 86 107 116 95 77 60 58 47 37 17 16 8 9 2 356
68 61 57 56 54 50 47 47 43 39 37 35 34 34 32 32 41 46 50 52 54 56 58 62 65 71 76 72 66 64 65 67 74 72 67 81 99 90 70 54 44 32 26 14 19 22 15 12 4
66 59 53 51 49 45 46 45 44 36 35 32 31 31 31 33 39 41 47 50 51 55 54 53 59 65 65 67 68 68 66 69 69 60 56 60 59 55 35 32 32 17 1 4 358 359 4 354 5
66 59 53 50 49 42 40 42 40 36 35 33 34 34 34 37 39 40 45 53 54 52 52 53 59 61 59 57 61 66 64 66 65 50 47 49 47 34 15 10 7 3 343 339 338 336 335 337 337
68 59 53 48 47 43 41 41 40 38 34 32 31 31 32 34 37 41 47 55 58 59 57 54 54 53 51 53 54 57 55 54 53 40 45 47 48 28 11 3 355 345 337 333 325 316 317 328 332
64 60 55 49 43 42 41 41 38 39 31 32 31 31 33 34 36 39 50 60 58 56 58 54 53 52 49 49 47 50 43 42 42 44 53 49 43 23 7 1 350 342 336 327 318 314 308 319 323
66 64 57 53 43 38 37 38 35 33 32 34 33 31 30 31 32 36 41 51 54 50 45 43 47 48 43 43 45 49 41 39 36 48 39 34 27 10 6 358 351 346 342 329 320 319 315 307 304
66 62 51 49 44 34 33 33 30 30 31 31 31 29 27 28 32 37 40 36 38 42 41 39 48 46 44 43 43 41 33 31 26 25 16 14 7 0 357 354 349 347 344 336 328 322 320 321 312
63 63 55 41 35 31 27 29 27 33 33 30 30 29 27 31 34 35 34 35 36 36 42 48 51 46 42 40 37 35 26 16 11 13 13 359 351 342 341 351 351 348 348 345 337 326 322 320 321
64 52 50 39 35 36 31 30 32 34 33 29 28 28 28 31 32 32 33 32 33 35 41 46 43 37 33 27 22 19 12 4 357 355 350 351 343 342 341 344 342 339 340 342 335 327 325 321 318
72 64 48 34 38 31 25 30 33 31 28 27 27 27 28 28 30 29 30 27 26 33 37 37 31 31 30 26 19 11 3 354 347 345 347 347 339 336 336 336 334 331 331 328 328 323 323 321 317
105 70 45 26 18 9 9 21 30 26 23 25 26 25 22 25 25 25 27 26 25 28 28 22 22 29 24 18 9 0 359 350 336 336 339 330 321 317 318 318 318 320 320 320 319 313 309 308 307
177 160 29 13 356 348 355 5 13 14 15 16 19 24 19 20 22 21 22 24 24 23 22 18 20 22 16 11 8 359 354 348 336 329 324 320 316 311 309 307 307 310 314 316 316 312 309 304 301
213 221 257 337 336 333 336 343 347 352 0 2 3 15 19 20 20 18 15 15 14 12 13 12 13 12 8 1 360 356 348 343 339 331 320 311 308 307 305 305 304 304 307 310 311 310 307 305 301
232 232 238 286 292 303 314 316 331 335 335 341 351 358 10 15 13 11 9 8 7 6 6 5 3 0 353 349 347 343 335 327 324 326 319 308 305 301 300 301 302 300 302 305 306 306 304 304 303
229 233 244 267 281 287 301 307 313 315 318 321 328 333 357 1 0 359 355 352 352 352 355 357 352 347 343 338 334 328 324 326 326 323 320 310 306 304 301 300 298 298 299 299 300 302 302 302 301
230 237 253 260 267 277 289 300 304 307 311 312 315 320 335 339 344 343 344 341 340 339 341 342 337 333 331 326 320 326 324 322 318 317 315 313 307 303 302 299 300 300 299 296 296 298 299 299 298
232 240 243 250 263 272 283 293 301 302 307 311 314 312 321 333 333 329 332 335 331 332 333 334 330 324 323 322 319 317 318 313 313 311 311 312 310 305 303 301 302 302 302 300 299 298 297 296 295
230 233 236 246 256 261 273 282 288 294 304 307 307 306 305 327 334 327 326 332 325 328 325 321 324 321 319 319 318 316 315 314 314 314 311 309 307 305 303 299 297 299 300 299 299 298 296 296 298
236 238 241 244 251 260 267 275 280 289 298 304 304 300 302 316 325 323 321 322 318 321 321 314 316 317 318 319 318 314 313 313 313 314 313 307 304 303 303 301 298 298 299 298 298 299 296 297 298
241 243 245 249 256 262 265 267 275 290 297 302 302 302 302 308 313 318 317 316 313 316 318 313 311 313 314 309 310 312 310 310 310 311 312 310 306 304 304 302 301 299 299 296 297 298 298 298 297
240 240 245 253 259 263 265 265 267 285 290 298 302 303 299 305 305 310 311 310 308 315 313 312 309 306 308 307 307 310 308 306 307 308 308 308 308 307 305 304 302 301 300 299 298 298 297 296 295
239 243 244 249 257 261 265 267 270 280 287 296 299 300 301 302 305 311 309 304 307 310 310 304 303 304 306 302 302 305 304 302 303 304 304 305 305 305 306 304 302 300 300 300 299 297 297 295 295
238 243 245 249 256 260 265 268 274 280 283 286 291 294 298 300 304 303 302 305 305 305 303 304 305 302 302 300 301 302 304 302 303 303 303 303 303 304 304 304 302 300 299 300 299 298 296 295 295
239 244 248 250 252 255 261 266 272 276 279 281 284 289 292 294 299 301 299 298 299 302 301 303 303 304 303 302 303 303 302 301 300 300 301 302 301 303 303 302 301 300 300 300 300 299 296 296 296
Height
5905 5904 5904 5905 5904 5903 5901 5901 5901 5900 5900 5899 5898 5898 5897 5897 5897 5898 5896 5894 5893 5892 5891 5891 5890 5889 5888 5887 5888 5890 5891 5892 5893 5893 5893 5894 5894 5894 5894 5894 5894 5894 5894 5893 5893 5892 5892 5892 5891
5907 5906 5907 5907 5905 5904 5903 5902 5902 5902 5902 5900 5900 5899 5898 5898 5897 5896 5895 5894 5893 5893 5892 5892 5891 5891 5890 5890 5890 5891 5892 5892 5893 5893 5893 5894 5894 5894 5894 5894 5894 5894 5894 5894 5893 5893 5892 5891 5891
5909 5909 5909 5908 5906 5906 5905 5904 5904 5904 5903 5902 5901 5900 5900 5899 5898 5896 5896 5895 5894 5894 5893 5893 5893 5892 5892 5892 5892 5892 5893 5893 5893 5893 5894 5894 5895 5895 5895 5895 5894 5894 5894 5893 5893 5893 5892 5891 5891
5911 5912 5912 5910 5908 5907 5907 5906 5905 5905 5905 5904 5903 5902 5900 5900 5899 5898 5896 5896 5895 5895 5894 5894 5893 5893 5893 5893 5893 5893 5894 5894 5894 5894 5894 5894 5895 5895 5895 5895 5894 5894 5894 5894 5893 5893 5892 5891 5891
5913 5913 5913 5911 5909 5909 5909 5908 5907 5907 5906 5905 5904 5903 5902 5901 5899 5898 5897 5897 5896 5896 5895 5895 5894 5894 5894 5894 5894 5894 5894 5894 5894 5894 5894 5895 5895 5895 5895 5895 5895 5895 5894 5894 5893 5893 5892 5892 5891
5915 5915 5914 5912 5911 5911 5911 5910 5909 5909 5907 5906 5905 5904 5903 5902 5901 5899 5898 5898 5897 5897 5896 5896 5896 5895 5895 5895 5895 5895 5895 5895 5894 5895 5895 5895 5895 5895 5895 5895 5895 5895 5894 5894 5893 5893 5892 5892 5891
5918 5916 5915 5914 5913 5913 5913 5912 5911 5910 5909 5908 5907 5905 5903 5903 5902 5900 5899 5899 5898 5898 5897 5897 5897 5897 5896 5896 5896 5896 5896 5895 5895 5895 5895 5895 5895 5895 5895 5895 5895 5894 5894 5894 5893 5892 5892 5891 5890
5918 5918 5916 5915 5915 5915 5915 5914 5913 5911 5910 5909 5907 5906 5904 5903 5902 5901 5900 5900 5899 5899 5898 5898 5898 5898 5897 5897 5897 5897 5897 5897 5896 5896 5896 5896 5896 5896 5895 5895 5895 5894 5894 5893 5893 5892 5892 5891 5890
5919 5920 5918 5917 5917 5917 5916 5915 5914 5913 5911 5909 5908 5907 5906 5904 5903 5902 5901 5900 5900 5900 5899 5899 5899 5898 5898 5898 5898 5897 5897 5897 5897 5897 5896 5896 5896 5896 5896 5895 5895 5894 5893 5893 5892 5892 5891 5890 5890
5920 5920 5919 5919 5919 5918 5917 5916 5915 5914 5912 5911 5909 5908 5906 5905 5904 5903 5902 5901 5901 5900 5900 5900 5899 5899 5898 5898 5898 5898 5898 5898 5897 5897 5897 5897 5897 5896 5895 5895 5894 5894 5893 5892 5891 5891 5890 5890 5889
5921 5921 5921 5920 5920 5919 5919 5918 5917 5915 5914 5912 5911 5909 5907 5906 5904 5904 5903 5902 5902 5901 5901 5901 5900 5899 5899 5898 5898 5898 5898 5898 5897 5897 5897 5897 5896 5896 5895 5894 5894 5893 5892 5892 5891 5890 5889 5889 5888
5923 5923 5922 5921 5921 5921 5920 5919 5918 5916 5915 5913 5912 5910 5909 5907 5906 5904 5903 5903 5902 5901 5901 5901 5900 5900 5899 5898 5898 5898 5898 5897 5897 5897 5897 5896 5896 5896 5895 5894 5893 5893 5892 5891 5890 5889 5888 5888 5887
5924 5924 5923 5923 5922 5922 5921 5919 5919 5917 5916 5914 5913 5911 5910 5908 5906 5905 5904 5903 5902 5901 5901 5900 5900 5900 5899 5899 5898 5898 5898 5897 5897 5897 5896 5896 5896 5895 5895 5894 5893 5892 5891 5890 5889 5888 5887 5886 5885
5925 5925 5924 5924 5923 5922 5922 5921 5920 5918 5916 5915 5913 5912 5911 5909 5907 5906 5904 5903 5902 5901 5901 5900 5900 5900 5899 5899 5898 5898 5898 5897 5897 5896 5896 5895 5895 5894 5894 5893 5892 5891 5890 5889 5888 5887 5886 5885 5884
5926 5925 5925 5924 5923 5923 5923 5922 5921 5919 5917 5916 5914 5913 5912 5910 5908 5906 5905 5903 5902 5901 5900 5900 5900 5899 5899 5898 5898 5898 5897 5897 5896 5896 5895 5895 5894 5893 5893 5892 5891 5890 5889 5888 5887 5885 5884 5883 5882
5926 5926 5925 5925 5924 5923 5925 5923 5921 5920 5918 5917 5915 5914 5912 5911 5909 5907 5905 5904 5902 5901 5900 5900 5899 5899 5899 5898 5898 5897 5896 5896 5895 5895 5894 5894 5893 5892 5892 5891 5890 5889 5887 5886 5885 5884 5883 5882 5880
5926 5926 5925 5924 5924 5923 5924 5922 5922 5920 5919 5918 5917 5915 5913 5911 5909 5907 5905 5904 5903 5902 5901 5900 5899 5898 5898 5898 5897 5896 5895 5894 5894 5894 5893 5892 5891 5891 5890 5889 5888 5887 5886 5885 5883 5882 5881 5880 5878
5925 5924 5924 5923 5923 5922 5922 5922 5921 5920 5919 5918 5917 5915 5913 5911 5910 5908 5906 5905 5903 5902 5901 5900 5899 5898 5898 5897 5896 5895 5894 5893 5893 5892 5891 5890 5889 5889 5888 5887 5886 5885 5884 5882 5881 5879 5878 5877 5876
5923 5923 5922 5922 5921 5921 5921 5920 5920 5919 5917 5917 5916 5915 5913 5912 5910 5908 5907 5905 5904 5902 5902 5900 5899 5898 5897 5896 5895 5894 5893 5893 5892 5891 5890 5889 5887 5886 5885 5884 5883 5882 5881 5879 5878 5877 5875 5874 5873
5921 5921 5921 5921 5921 5921 5919 5919 5918 5918 5917 5916 5915 5914 5912 5911 5910 5909 5907 5905 5903 5902 5901 5900 5899 5898 5897 5895 5894 5893 5892 5891 5890 5889 5888 5886 5885 5884 5883 5881 5880 5879 5878 5876 5875 5874 5872 5871 5869
5919 5919 5919 5919 5919 5919 5918 5917 5917 5916 5916 5916 5914 5913 5911 5910 5909 5908 5907 5905 5903 5902 5900 5899 5898 5896 5895 5894 5893 5891 5890 5888 5888 5886 5885 5884 5882 5881 5880 5878 5877 5876 5875 5873 5872 5870 5869 5867 5865
5916 5917 5916 5917 5917 5917 5918 5917 5915 5915 5914 5913 5912 5912 5911 5909 5908 5907 5905 5904 5902 5901 5899 5898 5896 5895 5893 5892 5891 5889 5888 5886 5885 5884 5883 5881 5880 5878 5876 5875 5874 5872 5871 5869 5868 5866 5864 5863 5861
5914 5914 5914 5914 5914 5915 5915 5915 5915 5913 5913 5912 5911 5910 5909 5908 5906 5905 5904 5902 5901 5899 5897 5896 5894 5893 5891 5890 5888 5887 5886 5884 5883 5882 5880 5878 5877 5875 5873 5872 5870 5869 5867 5865 5864 5862 5860 5858 5857
5911 5912 5912 5912 5912 5912 5913 5912 5912 5911 5910 5909 5908 5907 5906 5905 5904 5903 5901 5900 5898 5896 5895 5893 5891 5890 5889 5888 5886 5885 5883 5882 5880 5879 5877 5875 5873 5872 5870 5868 5866 5865 5863 5861 5859 5857 5856 5854 5852
5908 5909 5909 5909 5909 5909 5909 5908 5909 5908 5907 5906 5905 5904 5903 5902 5901 5900 5898 5897 5895 5894 5892 5890 5889 5888 5887 5885 5884 5882 5881 5879 5877 5876 5874 5872 5870 5868 5866 5864 5862 5860 5859 5857 5855 5853 5851 5849 5847
5903 5904 5905 5905 5905 5905 5905 5904 5905 5903 5903 5902 5902 5901 5900 5900 5898 5897 5895 5894 5892 5891 5890 5888 5886 5885 5884 5882 5881 5879 5877 5876 5874 5873 5871 5869 5867 5865 5863 5861 5858 5856 5854 5852 5850 5848 5846 5843 5841
5899 5900 5901 5901 5900 5900 5900 5900 5900 5899 5899 5899 5898 5897 5897 5896 5895 5894 5892 5891 5889 5888 5887 5885 5884 5882 5881 5879 5877 5875 5874 5872 5871 5869 5867 5866 5863 5861 5859 5856 5854 5852 5849 5846 5844 5842 5840 5838 5835
5894 5896 5896 5896 5896 5895 5895 5895 5896 5895 5895 5896 5895 5894 5893 5892 5891 5890 5889 5888 5887 5885 5883 5882 5880 5878 5876 5874 5873 5872 5870 5869 5867 5865 5863 5862 5859 5857 5854 5852 5849 5847 5844 5841 5839 5836 5834 5831 5829
5889 5890 5890 5891 5891 5891 5890 5892 5892 5891 5892 5891 5891 5889 5887 5887 5886 5885 5885 5883 5882 5881 5879 5878 5876 5874 5872 5871 5869 5867 5865 5864 5863 5861 5859 5857 5854 5852 5849 5847 5844 5842 5839 5836 5833 5830 5828 5825 5822
5884 5885 5885 5886 5886 5886 5885 5888 5887 5886 5886 5886 5886 5885 5883 5883 5882 5882 5880 5878 5877 5875 5874 5873 5872 5870 5868 5866 5863 5862 5860 5859 5857 5856 5853 5851 5849 5847 5844 5842 5839 5836 5833 5830 5827 5824 5821 5818 5816